EN

Hourly Weather Witney

Today, 25 October, Sunday

Time Temperature Precipitation Wind Pressure Humidity
00:00 +7°C° 1 mm 6 mps 737 mmHg 89%
01:00 +7°C° 0.1 mm 6 mps 737 mmHg 89%
02:00 +7°C° 0.1 mm 5 mps 738 mmHg 90%
03:00 +7°C° 0.1 mm 5 mps 738 mmHg 90%
04:00 +6°C° 0 mm 5 mps 738 mmHg 89%
05:00 +6°C° 0 mm 5 mps 738 mmHg 88%
06:00 +6°C° 0 mm 5 mps 738 mmHg 88%
07:00 +7°C° 0 mm 5 mps 738 mmHg 85%
08:00 +7°C° 0 mm 6 mps 738 mmHg 83%
09:00 +8°C° 0 mm 6 mps 738 mmHg 81%
10:00 +9°C° 0.1 mm 6 mps 738 mmHg 78%
11:00 +10°C° 0.1 mm 7 mps 738 mmHg 75%
12:00 +11°C° 0.1 mm 7 mps 738 mmHg 72%
13:00 +11°C° 0.4 mm 6 mps 738 mmHg 74%
14:00 +10°C° 0.4 mm 6 mps 738 mmHg 75%
15:00 +10°C° 0.4 mm 6 mps 738 mmHg 77%
16:00 +9°C° 0.3 mm 5 mps 738 mmHg 80%
17:00 +8°C° 0.3 mm 5 mps 738 mmHg 84%
18:00 +7°C° 0.3 mm 4 mps 738 mmHg 88%
19:00 +6°C° 0 mm 4 mps 738 mmHg 88%
20:00 +6°C° 0 mm 4 mps 738 mmHg 89%
21:00 +6°C° 0 mm 4 mps 739 mmHg 90%
22:00 +6°C° 0 mm 5 mps 739 mmHg 89%
23:00 +6°C° 0 mm 5 mps 739 mmHg 88%

Tomorrow, 26 October, Monday

Time Temperature Precipitation Wind Pressure Humidity
00:00 +5°C° 0 mm 6 mps 739 mmHg 88%
01:00 +5°C° 0 mm 6 mps 738 mmHg 87%
02:00 +5°C° 0 mm 6 mps 738 mmHg 87%
03:00 +5°C° 0 mm 6 mps 738 mmHg 87%
04:00 +5°C° 0 mm 6 mps 738 mmHg 87%
05:00 +5°C° 0 mm 6 mps 738 mmHg 88%
06:00 +5°C° 0 mm 6 mps 738 mmHg 88%
07:00 +7°C° 0.1 mm 6 mps 737 mmHg 87%
08:00 +6°C° 0.1 mm 7 mps 737 mmHg 87%
09:00 +7°C° 0.1 mm 8 mps 737 mmHg 86%
10:00 +9°C° 0.2 mm 8 mps 737 mmHg 83%
11:00 +10°C° 0.2 mm 7 mps 737 mmHg 80%
12:00 +10°C° 0.2 mm 7 mps 738 mmHg 77%
13:00 +10°C° 0.2 mm 7 mps 738 mmHg 77%
14:00 +10°C° 0.2 mm 6 mps 738 mmHg 77%
15:00 +10°C° 0.2 mm 6 mps 738 mmHg 76%
16:00 +9°C° 0 mm 5 mps 739 mmHg 80%
17:00 +8°C° 0 mm 5 mps 739 mmHg 83%
18:00 +7°C° 0 mm 4 mps 740 mmHg 86%
19:00 +7°C° 0 mm 4 mps 740 mmHg 88%
20:00 +6°C° 0 mm 4 mps 740 mmHg 89%
21:00 +6°C° 0 mm 4 mps 741 mmHg 90%
22:00 +6°C° 0 mm 4 mps 741 mmHg 90%
23:00 +5°C° 0 mm 4 mps 741 mmHg 91%

Day after tomorrow, 27 October, Tuesday

Time Temperature Precipitation Wind Pressure Humidity
00:00 +5°C° 0 mm 4 mps 741 mmHg 91%
01:00 +5°C° 0 mm 4 mps 741 mmHg 91%
02:00 +5°C° 0 mm 4 mps 741 mmHg 91%
03:00 +4°C° 0 mm 3 mps 741 mmHg 92%
04:00 +4°C° 0 mm 3 mps 741 mmHg 91%
05:00 +4°C° 0 mm 3 mps 741 mmHg 91%
06:00 +4°C° 0 mm 3 mps 741 mmHg 91%
07:00 +5°C° 0 mm 4 mps 741 mmHg 89%
08:00 +6°C° 0 mm 4 mps 740 mmHg 87%
09:00 +7°C° 0 mm 5 mps 740 mmHg 84%
10:00 +8°C° 0.6 mm 6 mps 739 mmHg 88%
11:00 +9°C° 0.6 mm 6 mps 738 mmHg 91%
12:00 +9°C° 0.6 mm 7 mps 737 mmHg 94%
13:00 +9°C° 1 mm 7 mps 737 mmHg 93%
14:00 +10°C° 1 mm 8 mps 736 mmHg 92%
15:00 +10°C° 1 mm 8 mps 736 mmHg 91%
16:00 +9°C° 0.1 mm 7 mps 736 mmHg 88%
17:00 +8°C° 0.1 mm 6 mps 737 mmHg 85%
18:00 +7°C° 0.1 mm 6 mps 737 mmHg 82%
19:00 +5°C° 0 mm 6 mps 737 mmHg 83%
20:00 +5°C° 0 mm 6 mps 738 mmHg 84%
21:00 +5°C° 0 mm 5 mps 739 mmHg 85%
22:00 +4°C° 0 mm 6 mps 738 mmHg 86%
23:00 +4°C° 0 mm 6 mps 738 mmHg 86%

28 October, Wednesday

Time Temperature Precipitation Wind Pressure Humidity
00:00 +4°C° 0 mm 6 mps 738 mmHg 86%
01:00 +5°C° 0 mm 6 mps 738 mmHg 86%
02:00 +5°C° 0 mm 6 mps 737 mmHg 85%
03:00 +5°C° 0 mm 6 mps 737 mmHg 85%
04:00 +5°C° 0 mm 6 mps 737 mmHg 85%
05:00 +5°C° 0 mm 6 mps 736 mmHg 85%
06:00 +7°C° 0 mm 6 mps 736 mmHg 85%
07:00 +6°C° 0.1 mm 7 mps 736 mmHg 84%
08:00 +6°C° 0.1 mm 8 mps 736 mmHg 84%
09:00 +7°C° 0.1 mm 8 mps 736 mmHg 83%
10:00 +7°C° 0.2 mm 9 mps 736 mmHg 82%
11:00 +7°C° 0.2 mm 9 mps 736 mmHg 81%
12:00 +8°C° 0.2 mm 10 mps 736 mmHg 80%
13:00 +8°C° 0.7 mm 10 mps 736 mmHg 81%
14:00 +8°C° 0.7 mm 10 mps 736 mmHg 81%
15:00 +7°C° 0.7 mm 10 mps 736 mmHg 82%
16:00 +7°C° 0.6 mm 10 mps 736 mmHg 82%
17:00 +7°C° 0.6 mm 10 mps 736 mmHg 82%
18:00 +7°C° 0.6 mm 10 mps 736 mmHg 82%
19:00 +7°C° 0 mm 10 mps 737 mmHg 81%
20:00 +7°C° 0 mm 10 mps 738 mmHg 80%
21:00 +7°C° 0 mm 9 mps 738 mmHg 79%
22:00 +7°C° 0 mm 9 mps 739 mmHg 79%
23:00 +7°C° 0 mm 9 mps 740 mmHg 79%

29 October, Thursday

Time Temperature Precipitation Wind Pressure Humidity
00:00 +7°C° 0 mm 9 mps 740 mmHg 79%
01:00 +7°C° 0 mm 9 mps 741 mmHg 80%
02:00 +7°C° 0 mm 8 mps 742 mmHg 80%
03:00 +7°C° 0 mm 8 mps 742 mmHg 81%
04:00 +7°C° 0 mm 8 mps 743 mmHg 82%
05:00 +7°C° 0 mm 8 mps 743 mmHg 84%
06:00 +8°C° 0 mm 7 mps 743 mmHg 85%
07:00 +8°C° 0.3 mm 9 mps 743 mmHg 86%
08:00 +9°C° 0.3 mm 10 mps 742 mmHg 88%
09:00 +11°C° 0.3 mm 11 mps 742 mmHg 89%
10:00 +11°C° 0.5 mm 11 mps 742 mmHg 89%
11:00 +12°C° 0.5 mm 11 mps 742 mmHg 90%
12:00 +12°C° 0.5 mm 11 mps 742 mmHg 91%
13:00 +12°C° 1 mm 11 mps 742 mmHg 91%
14:00 +12°C° 1 mm 10 mps 742 mmHg 91%
15:00 +13°C° 1 mm 10 mps 742 mmHg 91%
16:00 +13°C° 0.6 mm 10 mps 742 mmHg 90%
17:00 +13°C° 0.6 mm 10 mps 743 mmHg 89%
18:00 +13°C° 0.6 mm 9 mps 743 mmHg 88%
19:00 +12°C° 0.3 mm 9 mps 744 mmHg 89%
20:00 +12°C° 0.3 mm 8 mps 744 mmHg 90%
21:00 +11°C° 0.3 mm 7 mps 745 mmHg 91%
22:00 +11°C° 0.7 mm 6 mps 745 mmHg 92%
23:00 +12°C° 0.7 mm 5 mps 745 mmHg 93%

30 October, Friday

Time Temperature Precipitation Wind Pressure Humidity
00:00 +10°C° 0.7 mm 5 mps 745 mmHg 94%
01:00 +11°C° 1.3 mm 4 mps 745 mmHg 95%
02:00 +11°C° 1.3 mm 3 mps 745 mmHg 95%
03:00 +11°C° 1.3 mm 3 mps 745 mmHg 96%
04:00 +10°C° 2.2 mm 2 mps 745 mmHg 96%
05:00 +10°C° 2.2 mm 2 mps 745 mmHg 96%
06:00 +9°C° 2.2 mm 2 mps 745 mmHg 96%
07:00 +10°C° 1.4 mm 1 mps 746 mmHg 96%
08:00 +10°C° 1.4 mm 1 mps 746 mmHg 96%
09:00 +10°C° 1.4 mm 1 mps 746 mmHg 96%
10:00 +10°C° 0.9 mm 1 mps 746 mmHg 96%
11:00 +10°C° 0.9 mm 1 mps 747 mmHg 96%
12:00 +10°C° 0.9 mm 1 mps 747 mmHg 96%
13:00 +10°C° 1.2 mm 3 mps 746 mmHg 95%
14:00 +11°C° 1.2 mm 4 mps 746 mmHg 95%
15:00 +10°C° 1.2 mm 5 mps 746 mmHg 94%
16:00 +11°C° 1 mm 6 mps 745 mmHg 93%
17:00 +12°C° 1 mm 7 mps 745 mmHg 92%
18:00 +12°C° 1 mm 8 mps 744 mmHg 90%
19:00 +12°C° 0.5 mm 8 mps 744 mmHg 90%
20:00 +12°C° 0.5 mm 9 mps 743 mmHg 90%
21:00 +12°C° 0.5 mm 10 mps 742 mmHg 90%
22:00 +12°C° 0.7 mm 11 mps 742 mmHg 89%
23:00 +12°C° 0.7 mm 11 mps 741 mmHg 89%
Show more